Weather History for Rice Lake, WI

Change the Weather History Date:

Thursday, April 11, 2013

  Actual Average Record
Temperature  
Mean Temperature 32 °F -  
Max Temperature 35 °F 50 °F 71 °F (2006)
Min Temperature 30 °F 32 °F 21 °F (1997)
Degree Days  
Heating Degree Days 32    
Moisture  
Dew Point 24 °F    
Average Humidity 73    
Maximum Humidity 93    
Minimum Humidity 41    
Precipitation  
Precipitation 0.05 in - - ()
Sea Level Pressure  
Sea Level Pressure 29.81 in    
Wind  
Wind Speed 15 mph (ENE)    
Max Wind Speed 24 mph    
Max Gust Speed 32 mph    
Visibility 8 miles    
Events Rain , Snow    
Averages and records for this station are not official NWS values.
T = Trace of Precipitation, MM = Missing Value Source: NWS Daily Summary

Daily Weather History Graph

Daily Weather History Graph

Search for Another Location

Airport:

Trip Planner

Search our weather history database for the weather conditions in past years. The results will help you decide how hot, cold, wet, or windy it might be!

Date:

Astronomy

Apr. 11, 2013 Rise Set
Actual Time 6:28 AM CDT 7:48 PM CDT
Civil Twilight 5:57 AM CDT 8:19 PM CDT
Nautical Twilight 5:21 AM CDT 8:56 PM CDT
Astronomical Twilight 4:41 AM CDT 9:35 PM CDT
Moon 6:56 AM CDT (4/11) 9:28 PM CDT (4/11)
Length of Visible Light 14h 21m
Length of Day
13h 20m
New Moon, 2% of the Moon is Illuminated
Apr 11
New Moon
Apr 18
First Quarter
Apr 25
Full
May 2
Last Quarter
May 9
New

Hourly Weather History & Observations

Time (CDT) Temp. Windchill Dew Point Humidity Pressure Visibility Wind Dir Wind Speed Gust Speed Precip Events Conditions
12:15 AM 35.6 °F 26.2 °F 17.6 °F 48% 29.96 in 10.0 mi NE 15.0 mph 18.4 mph N/A   Overcast
12:35 AM 35.6 °F 25.9 °F 15.8 °F 44% 29.95 in 10.0 mi ENE 16.1 mph 25.3 mph N/A   Overcast
12:55 AM 35.6 °F 25.9 °F 15.8 °F 44% 29.95 in 10.0 mi ENE 16.1 mph - N/A   Overcast
1:15 AM 35.6 °F 27.5 °F 15.8 °F 44% 29.95 in 10.0 mi NE 11.5 mph 17.3 mph N/A   Overcast
1:35 AM 35.6 °F 27.1 °F 14.0 °F 41% 29.94 in 10.0 mi NE 12.7 mph 21.9 mph N/A   Overcast
1:55 AM 35.6 °F 27.5 °F 14.0 °F 41% 29.94 in 10.0 mi NE 11.5 mph 16.1 mph N/A   Overcast
2:15 AM 35.6 °F 28.0 °F 14.0 °F 41% 29.94 in 10.0 mi ENE 10.4 mph 18.4 mph N/A   Overcast
2:35 AM 33.8 °F 24.8 °F 14.0 °F 44% 29.92 in 10.0 mi NE 12.7 mph 17.3 mph N/A   Overcast
2:55 AM 33.8 °F 24.3 °F 14.0 °F 44% 29.92 in 10.0 mi ENE 13.8 mph 23.0 mph N/A   Overcast
3:15 AM 33.8 °F 24.3 °F 15.8 °F 48% 29.91 in 10.0 mi ENE 13.8 mph 23.0 mph N/A   Overcast
3:35 AM 33.8 °F 24.3 °F 15.8 °F 48% 29.91 in 10.0 mi ENE 13.8 mph - N/A   Overcast
3:55 AM 33.8 °F 22.5 °F 15.8 °F 48% 29.89 in 10.0 mi ENE 19.6 mph 24.2 mph N/A   Overcast
4:15 AM 33.8 °F 22.8 °F 17.6 °F 52% 29.88 in 10.0 mi ENE 18.4 mph 26.5 mph N/A   Overcast
4:35 AM 33.8 °F 23.2 °F 17.6 °F 52% 29.87 in 10.0 mi ENE 17.3 mph 24.2 mph N/A   Overcast
4:55 AM 33.8 °F 23.2 °F 17.6 °F 52% 29.86 in 10.0 mi ENE 17.3 mph 21.9 mph N/A   Overcast
5:15 AM 33.8 °F 22.8 °F 17.6 °F 52% 29.85 in 10.0 mi ENE 18.4 mph 24.2 mph N/A   Overcast
5:35 AM 33.8 °F 22.8 °F 17.6 °F 52% 29.82 in 10.0 mi ENE 18.4 mph 26.5 mph N/A   Overcast
5:55 AM 33.8 °F 23.5 °F 19.4 °F 56% 29.82 in 10.0 mi ENE 16.1 mph 26.5 mph N/A Rain Light Rain
6:15 AM 33.8 °F 23.2 °F 21.2 °F 60% 29.79 in 10.0 mi ENE 17.3 mph 26.5 mph N/A Rain Light Rain
6:35 AM 33.8 °F 22.5 °F 21.2 °F 60% 29.76 in 10.0 mi ENE 19.6 mph 28.8 mph N/A   Overcast
6:55 AM 33.8 °F 22.2 °F 21.2 °F 60% 29.76 in 10.0 mi ENE 20.7 mph 27.6 mph N/A   Light Drizzle
7:15 AM 33.8 °F 21.9 °F 23.0 °F 65% 29.76 in 10.0 mi ENE 21.9 mph 29.9 mph N/A   Overcast
7:35 AM 33.8 °F 23.9 °F 23.0 °F 65% 29.78 in 10.0 mi ENE 15.0 mph 19.6 mph N/A   Overcast
7:55 AM 33.8 °F 28.6 °F 23.0 °F 65% 29.88 in 4.0 mi ESE 5.8 mph - N/A Snow Light Snow
8:35 AM 32.0 °F 24.2 °F 28.4 °F 87% 29.87 in 3.0 mi NE 9.2 mph - 0.02 in Snow Light Snow
8:55 AM 32.0 °F 23.6 °F 28.4 °F 87% 29.85 in 1.2 mi NE 10.4 mph - 0.03 in Snow Light Snow
9:15 AM 32.0 °F 23.6 °F 28.4 °F 87% 29.85 in 1.0 mi NE 10.4 mph 17.3 mph N/A Snow Light Snow
9:35 AM 32.0 °F 23.0 °F 30.2 °F 93% 29.84 in 1.5 mi NE 11.5 mph - N/A Snow Light Snow
9:55 AM 32.0 °F 22.1 °F 28.4 °F 87% 29.82 in 1.8 mi NNE 13.8 mph 21.9 mph N/A Snow Light Snow
10:15 AM 32.0 °F 23.0 °F 30.2 °F 93% 29.82 in 1.8 mi NE 11.5 mph 19.6 mph 0.01 in Snow Light Snow
10:35 AM 32.0 °F 23.6 °F 28.4 °F 87% 29.83 in 4.0 mi ENE 10.4 mph 20.7 mph 0.01 in Snow Light Snow
11:15 AM 32.0 °F 21.6 °F 28.4 °F 87% 29.82 in 4.0 mi ENE 15.0 mph 28.8 mph N/A Snow Light Snow
11:35 AM 32.0 °F 20.1 °F 28.4 °F 87% 29.81 in 3.0 mi ENE 19.6 mph - N/A Snow Light Snow
11:55 AM 33.8 °F 23.9 °F 28.4 °F 81% 29.82 in 3.0 mi ENE 15.0 mph 23.0 mph N/A Snow Light Snow
12:15 PM 33.8 °F 23.2 °F 28.4 °F 81% 29.81 in 4.0 mi ENE 17.3 mph 25.3 mph N/A Snow Light Snow
12:35 PM 33.8 °F 23.2 °F 28.4 °F 81% 29.80 in 3.0 mi ENE 17.3 mph 32.2 mph N/A Snow Light Snow
12:55 PM 33.8 °F 24.3 °F 30.2 °F 87% 29.78 in 4.0 mi ENE 13.8 mph 26.5 mph N/A   Haze
1:15 PM 33.8 °F 22.5 °F 28.4 °F 81% 29.79 in 7.0 mi ENE 19.6 mph 24.2 mph N/A   Overcast
1:35 PM 33.8 °F 23.5 °F 28.4 °F 81% 29.78 in 10.0 mi ENE 16.1 mph 28.8 mph N/A   Overcast
1:55 PM 33.8 °F 21.3 °F 28.4 °F 81% 29.76 in 10.0 mi ENE 24.2 mph 27.6 mph N/A   Overcast
2:15 PM 33.8 °F 22.2 °F 28.4 °F 81% 29.76 in 10.0 mi ENE 20.7 mph 28.8 mph N/A   Overcast
2:35 PM 33.8 °F 22.2 °F 28.4 °F 81% 29.76 in 10.0 mi ENE 20.7 mph 27.6 mph N/A   Overcast
2:55 PM 33.8 °F 22.2 °F 28.4 °F 81% 29.75 in 10.0 mi ENE 20.7 mph 27.6 mph N/A   Overcast
3:15 PM 33.8 °F 23.5 °F 28.4 °F 81% 29.75 in 10.0 mi ENE 16.1 mph 26.5 mph N/A   Overcast
3:35 PM 33.8 °F 23.9 °F 28.4 °F 81% 29.75 in 10.0 mi ENE 15.0 mph - N/A   Overcast
4:15 PM 35.6 °F 27.1 °F 28.4 °F 75% 29.74 in 10.0 mi ENE 12.7 mph 21.9 mph N/A   Overcast
4:35 PM 33.8 °F 23.9 °F 28.4 °F 81% 29.74 in 10.0 mi ENE 15.0 mph 25.3 mph N/A   Overcast
4:55 PM 33.8 °F 23.2 °F 28.4 °F 81% 29.75 in 10.0 mi East 17.3 mph 27.6 mph N/A   Overcast
5:15 PM 33.8 °F 25.3 °F 28.4 °F 81% 29.75 in 10.0 mi ENE 11.5 mph 17.3 mph N/A   Overcast
5:35 PM 33.8 °F 25.3 °F 28.4 °F 81% 29.76 in 10.0 mi ENE 11.5 mph 24.2 mph N/A   Overcast
5:55 PM 33.8 °F 23.9 °F 28.4 °F 81% 29.76 in 10.0 mi ENE 15.0 mph 23.0 mph N/A   Overcast
6:15 PM 32.0 °F 21.2 °F 28.4 °F 87% 29.76 in 10.0 mi ENE 16.1 mph 21.9 mph N/A   Overcast
6:35 PM 32.0 °F 21.6 °F 28.4 °F 87% 29.75 in 10.0 mi NE 15.0 mph 18.4 mph N/A   Overcast
7:55 PM 32.0 °F 23.6 °F 26.6 °F 80% 29.73 in 10.0 mi ENE 10.4 mph 21.9 mph N/A   Overcast
8:15 PM 32.0 °F 21.2 °F 26.6 °F 80% 29.73 in 10.0 mi ENE 16.1 mph 21.9 mph N/A   Overcast
8:35 PM 32.0 °F 23.6 °F 26.6 °F 80% 29.74 in 10.0 mi ENE 10.4 mph 23.0 mph N/A   Overcast
8:55 PM 32.0 °F 22.1 °F 28.4 °F 87% 29.74 in 3.0 mi ENE 13.8 mph 20.7 mph N/A   Overcast
9:15 PM 30.2 °F 20.8 °F 28.4 °F 93% 29.74 in 5.0 mi NE 11.5 mph - N/A   Overcast
9:35 PM 30.2 °F 21.9 °F 28.4 °F 93% 29.74 in 4.0 mi NE 9.2 mph - N/A Snow Light Snow
9:55 PM 30.2 °F 21.3 °F 28.4 °F 93% 29.74 in 7.0 mi NE 10.4 mph 18.4 mph N/A   Overcast
10:15 PM 30.2 °F 21.9 °F 28.4 °F 93% 29.73 in 3.0 mi NE 9.2 mph - N/A Snow Light Snow
10:35 PM 30.2 °F 20.8 °F 28.4 °F 93% 29.73 in 4.0 mi NE 11.5 mph - N/A Snow Light Snow
10:55 PM 30.2 °F 21.9 °F 28.4 °F 93% 29.72 in 1.2 mi NNE 9.2 mph - 0.01 in Snow Light Snow
11:15 PM 30.2 °F 22.6 °F 28.4 °F 93% 29.72 in 3.0 mi NNE 8.1 mph - N/A Snow Light Snow
11:35 PM 30.2 °F 21.9 °F 28.4 °F 93% 29.72 in 5.0 mi NNE 9.2 mph - N/A   Overcast
11:55 PM 30.2 °F 21.3 °F 28.4 °F 93% 29.72 in 2.5 mi NNE 10.4 mph - N/A Snow Light Snow